GW1263 Weather Reports


time (UTC)temp
C
wind
direction
speed
KPH
gust
KPH
rain 1hr
cm
rain 24hr
cm
rain mn
cm
humidity
%
barometer
mb
20260505073036 17 205 3.2 16.1 0.00 0.00 0.00 65 1010.7
20260505071529 16 325 3.2 9.7 0.00 0.00 0.00 69 1010.6
20260505070028 14 217 4.8 14.5 0.00 0.00 0.00 77 1010.7
20260505064510 12 323 0.0 6.4 0.00 0.00 0.00 87 1010.7
20260505063009 12 36 1.6 4.8 0.00 0.00 0.00 89 1010.8
20260505061510 11 44 0.0 6.4 0.00 0.00 0.00 91 1010.8
20260505060033 11 25 1.6 4.8 0.00 0.00 0.00 91 1011.0
20260505054534 11 67 0.0 4.8 0.00 0.00 0.00 91 1011.0
20260505053003 11 84 0.0 3.2 0.00 0.00 0.00 91 1010.9
20260505051510 11 85 0.0 0.0 0.00 0.00 0.00 91 1010.9
20260505041507 12 227 0.0 3.2 0.00 0.00 0.00 88 1010.2
20260505040013 12 227 0.0 1.6 0.00 0.00 0.00 87 1010.1
20260505034516 13 227 0.0 1.6 0.00 0.00 0.00 87 1010.0
20260505033022 13 227 0.0 1.6 0.00 0.00 0.00 86 1009.9
20260505031525 13 227 0.0 1.6 0.00 0.00 0.00 85 1009.8
20260505030008 14 227 0.0 3.2 0.00 0.00 0.00 84 1009.8
20260505024514 15 227 0.0 3.2 0.00 0.00 0.00 82 1009.7
20260505023022 15 227 0.0 1.6 0.00 0.00 0.00 79 1009.8
20260505021522 16 227 0.0 1.6 0.00 0.00 0.00 76 1009.7
20260505020026 16 227 0.0 1.6 0.00 0.00 0.00 75 1009.6
20260505014512 17 227 0.0 1.6 0.00 0.00 0.00 72 1009.5
20260505013017 18 227 0.0 1.6 0.00 0.00 0.00 69 1009.3
20260505011523 19 227 0.0 1.6 0.00 0.00 0.00 66 1009.3
20260505010026 20 227 0.0 1.6 0.00 0.00 0.00 62 1009.4
20260505004523 21 227 0.0 1.6 0.00 0.00 0.00 59 1009.2
20260505003016 22 227 0.0 1.6 0.00 0.00 0.00 55 1009.2
20260505001522 23 266 1.6 4.8 0.00 0.00 0.00 50 1009.1
20260505000026 24 278 1.6 9.7 0.00 0.00 0.00 48 1009.2
20260504234507 24 231 0.0 8.0 0.00 0.00 0.00 45 1009.2
20260504233012 25 289 4.8 14.5 0.00 0.00 0.00 43 1009.3
20260504231532 25 277 8.0 19.3 0.00 0.00 0.00 42 1009.3
20260504230024 25 204 3.2 19.3 0.00 0.00 0.00 43 1009.2
20260504224523 25 267 4.8 17.7 0.00 0.00 0.00 41 1009.2
20260504223008 25 205 6.4 19.3 0.00 0.00 0.00 42 1009.4
20260504221517 25 296 4.8 19.3 0.00 0.00 0.00 44 1009.5
20260504220022 25 285 8.0 22.5 0.00 0.00 0.00 43 1009.6
20260504214534 25 206 4.8 22.5 0.00 0.00 0.00 43 1009.7
20260504213029 25 208 6.4 29.0 0.00 0.00 0.00 43 1009.4
20260504211515 25 303 3.2 17.7 0.00 0.00 0.00 45 1009.7
20260504210017 25 287 8.0 19.3 0.00 0.00 0.00 47 1009.8
20260504204550 25 186 3.2 22.5 0.00 0.00 0.00 48 1009.9
20260504203029 24 203 8.0 19.3 0.00 0.00 0.00 49 1010.2
20260504201526 23 204 4.8 17.7 0.00 0.00 0.00 53 1010.4
20260504200018 23 241 8.0 24.1 0.00 0.00 0.00 53 1010.7
20260504194521 22 275 8.0 29.0 0.00 0.00 0.00 52 1010.9
20260504193026 22 262 8.0 20.9 0.00 0.00 0.00 54 1011.1
20260504191524 21 235 6.4 24.1 0.00 0.00 0.00 55 1011.4
20260504190030 21 215 9.7 32.2 0.00 0.00 0.00 55 1011.5
20260504184518 20 257 8.0 25.7 0.00 0.00 0.00 58 1011.9
20260504183027 19 195 3.2 19.3 0.00 0.00 0.00 60 1012.5
20260504181523 20 257 11.3 32.2 0.00 0.00 0.00 53 1013.1
20260504180028 21 188 8.0 24.1 0.00 0.00 0.00 52 1012.3
20260504174514 21 175 9.7 29.0 0.00 0.00 0.00 51 1011.8
20260504173020 21 235 3.2 20.9 0.00 0.00 0.00 53 1011.7
20260504171537 20 246 4.8 17.7 0.00 0.00 0.00 56 1011.9
20260504081529 6 70 0.0 0.0 0.00 0.00 0.00 90 1014.7